Weather History for North Myrtle Beach, SC

Change the Weather History Date:

Sunday, October 16, 2011

  Actual Average Record
Temperature  
Mean Temperature 62 °F 65 °F  
Max Temperature 75 °F 75 °F 86 °F (2008)
Min Temperature 49 °F 56 °F 40 °F (1954)
Degree Days  
Heating Degree Days 3 2  
Month to date heating degree days 26 22  
Since 1 July heating degree days 26 26  
Cooling Degree Days 0 3  
Month to date cooling degree days 52 69  
Year to date cooling degree days 2176 1853  
Growing Degree Days 14 (Base 50)    
Moisture  
Dew Point 49 °F    
Average Humidity 62    
Maximum Humidity 93    
Minimum Humidity 31    
Precipitation  
Precipitation 0.00 in 0.14 in 0.10 in (1999)
Month to date precipitation 1.01 2.24  
Year to date precipitation 28.37 43.87  
Sea Level Pressure  
Sea Level Pressure 30.09 in    
Wind  
Wind Speed 6 mph (SSW)    
Max Wind Speed 14 mph    
Max Gust Speed 17 mph    
Visibility 10 miles    
Events      
T = Trace of Precipitation, MM = Missing Value Source: NWS Daily Summary

Daily Weather History Graph

Daily Weather History Graph

Search for Another Location

Airport:

Trip Planner

Search our weather history database for the weather conditions in past years. The results will help you decide how hot, cold, wet, or windy it might be!

Date:

Astronomy

Oct. 16, 2011 Rise Set
Actual Time 7:20 AM EDT 6:40 PM EDT
Civil Twilight 6:55 AM EDT 7:05 PM EDT
Nautical Twilight 6:26 AM EDT 7:34 PM EDT
Astronomical Twilight 5:57 AM EDT 8:03 PM EDT
Moon 9:36 PM EDT (10/16) 11:24 AM EDT (10/16)
Length of Visible Light 12h 10m
Length of Day
11h 19m
Waning Gibbous, 82% of the Moon is Illuminated
Oct 16
Waning Gibbous
Oct 19
Last Quarter
Oct 26
New
Nov 2
First Quarter
Nov 10
Full

Hourly Weather History & Observations

Time (EDT) Temp. Dew Point Humidity Pressure Visibility Wind Dir Wind Speed Gust Speed Precip Events Conditions
12:53 AM 66.0 °F 51.1 °F 59% 30.04 in 10.0 mi West 4.6 mph - N/A   Clear
2:53 AM 61.0 °F 48.9 °F 64% 30.06 in 10.0 mi West 4.6 mph - N/A   Clear
5:53 AM 55.0 °F 48.0 °F 77% 30.10 in 10.0 mi NW 4.6 mph - N/A   Clear
8:53 AM 59.0 °F 46.9 °F 64% 30.15 in 10.0 mi Calm Calm - N/A   Clear
9:53 AM 66.0 °F 43.0 °F 43% 30.17 in 10.0 mi NNE 3.5 mph - N/A   Clear
10:53 AM 70.0 °F 42.1 °F 36% 30.17 in 10.0 mi NE 8.1 mph - N/A   Clear
11:53 AM 73.0 °F 41.0 °F 31% 30.15 in 10.0 mi Variable 3.5 mph - N/A   Clear
12:53 PM 73.9 °F 45.0 °F 35% 30.14 in 10.0 mi SSE 6.9 mph - N/A   Clear
1:53 PM 73.0 °F 46.0 °F 38% 30.10 in 10.0 mi South 6.9 mph - N/A   Clear
2:53 PM 73.0 °F 46.9 °F 39% 30.08 in 10.0 mi South 8.1 mph - N/A   Clear
3:53 PM 73.0 °F 46.0 °F 38% 30.06 in 10.0 mi South 9.2 mph - N/A   Clear
4:53 PM 73.0 °F 46.9 °F 39% 30.06 in 10.0 mi SSW 9.2 mph - N/A   Clear
5:53 PM 71.1 °F 48.9 °F 45% 30.06 in 10.0 mi SSW 9.2 mph - N/A   Clear
6:53 PM 69.1 °F 48.9 °F 49% 30.06 in 10.0 mi SSW 8.1 mph - N/A   Clear
7:53 PM 69.1 °F 51.1 °F 53% 30.06 in 10.0 mi SSW 6.9 mph - N/A   Clear
8:53 PM 70.0 °F 54.0 °F 57% 30.06 in 10.0 mi SSW 9.2 mph - N/A   Clear
9:53 PM 70.0 °F 54.0 °F 57% 30.06 in 10.0 mi SSW 11.5 mph - N/A   Clear
10:53 PM 66.9 °F 55.9 °F 68% 30.06 in 10.0 mi SW 10.4 mph - N/A   Clear
11:53 PM 64.9 °F 57.0 °F 75% 30.06 in 10.0 mi WSW 4.6 mph - N/A   Clear